This is the latest recevied weather packets stored in our database for station/object G1SCQ. If no packets are shown the sender has not sent any weather packets the latest 10 day(s).
| Time | Temp. | Humidity | Pressure | Rain* | Wind** | Luminosity | Snow |
|---|---|---|---|---|---|---|---|
| 1777616284 | 11.11° C | 60% | 1021.2 hPa | 0 mm | - | 43 W/m² | - |
| 1777615744 | 11.11° C | 61% | 1021.3 hPa | 0 mm | - | 30 W/m² | - |
| 1777615204 | 10.56° C | 62% | 1021.3 hPa | 0 mm | - | 29 W/m² | - |
| 1777614304 | 9.44° C | 64% | 1021.5 hPa | 0 mm | - | 26 W/m² | - |
| 1777613764 | 9.44° C | 65% | 1021.1 hPa | 0 mm | - | 24 W/m² | - |
| 1777613224 | 8.89° C | 67% | 1021.1 hPa | 0 mm | - | 22 W/m² | - |
| 1777612684 | 8.89° C | 68% | 1021.2 hPa | 0 mm | - | 19 W/m² | - |
| 1777612144 | 8.89° C | 70% | 1021.1 hPa | 0 mm | - | 17 W/m² | - |
| 1777611604 | 8.33° C | 70% | 1021.1 hPa | 0 mm | - | 14 W/m² | - |
| 1777611244 | 8.33° C | 71% | 1021.3 hPa | 0 mm | - | 11 W/m² | - |
| 1777610704 | 8.33° C | 71% | 1021.4 hPa | 0 mm | - | 8 W/m² | - |
| 1777610164 | 8.33° C | 70% | 1021.1 hPa | 0 mm | - | 5 W/m² | - |
| 1777609624 | 8.89° C | 69% | 1021.3 hPa | 0 mm | - | 2 W/m² | - |
| 1777609084 | 8.89° C | 69% | 1021 hPa | 0 mm | - | 1 W/m² | - |
| 1777608004 | 8.89° C | 68% | 1021.2 hPa | 0 mm | - | 0 W/m² | - |
| 1777606564 | 9.44° C | 68% | 1021.2 hPa | 0 mm | - | 0 W/m² | - |
| 1777606024 | 9.44° C | 68% | 1021.4 hPa | 0 mm | - | 0 W/m² | - |
| 1777605484 | 9.44° C | 67% | 1021.3 hPa | 0 mm | - | 0 W/m² | - |
| 1777604944 | 10° C | 66% | 1021.5 hPa | 0 mm | - | 0 W/m² | - |
| 1777604404 | 10° C | 65% | 1021.4 hPa | 0 mm | - | 0 W/m² | - |
| 1777604044 | 10° C | 64% | 1021.8 hPa | 0 mm | - | 0 W/m² | - |
| 1777603504 | 10° C | 64% | 1021.5 hPa | 0 mm | - | 0 W/m² | - |
| 1777602964 | 10° C | 63% | 1021.5 hPa | 0 mm | - | 0 W/m² | - |
| 1777602424 | 10.56° C | 62% | 1021.4 hPa | 0 mm | - | 0 W/m² | - |
| 1777601884 | 10° C | 64% | 1021.4 hPa | 0 mm | - | 0 W/m² | - |
* Rain latest hour (hover to see other rain measurements)
** Current wind speed in m/s (hover to see current wind gust speed)